Total_Precipitation_Accumulation
0.42 0.26 0.46 0.51 0.43 0.38 0.38 0.41 0.42 0.42 0.43 0.41 0.36 0.31 0.25 0.21 0.18 0.19 0.19 0.17 0.14 0.11 0.11 0.14 0.16 0.19 0.19 0.22 0.27 0.34 0.45 0.51 0.42 0.35 0.36 0.34 0.29 0.37 0.59 0.71 0.76 0.82 0.60
0.37 0.27 0.46 0.52 0.44 0.38 0.40 0.45 0.47 0.47 0.47 0.44 0.40 0.34 0.30 0.24 0.23 0.20 0.16 0.15 0.12 0.11 0.11 0.12 0.17 0.19 0.19 0.24 0.31 0.37 0.44 0.48 0.45 0.44 0.53 0.56 0.43 0.48 0.59 0.66 0.74 0.74 0.53
0.37 0.31 0.39 0.53 0.52 0.47 0.47 0.48 0.50 0.52 0.52 0.54 0.51 0.45 0.41 0.32 0.26 0.21 0.17 0.14 0.13 0.14 0.17 0.18 0.19 0.18 0.21 0.26 0.31 0.39 0.42 0.50 0.55 0.58 0.78 1.11 0.72 0.49 0.50 0.55 0.48 0.47 0.44
0.37 0.36 0.46 0.59 0.61 0.61 0.61 0.64 0.63 0.60 0.57 0.60 0.58 0.52 0.46 0.40 0.34 0.34 0.33 0.23 0.19 0.18 0.21 0.21 0.19 0.20 0.27 0.32 0.36 0.37 0.38 0.51 0.64 0.60 0.83 1.07 0.97 0.59 0.58 0.67 0.57 0.48 0.45
0.43 0.39 0.54 0.67 0.63 0.64 0.69 0.81 0.82 0.77 0.69 0.64 0.63 0.60 0.54 0.49 0.46 0.51 0.42 0.32 0.28 0.28 0.29 0.31 0.28 0.27 0.33 0.37 0.38 0.36 0.43 0.58 0.66 0.59 0.73 0.88 1.14 0.84 0.66 0.75 0.73 0.59 0.49
0.38 0.37 0.55 0.79 0.72 0.72 0.76 0.92 0.86 0.82 0.81 0.75 0.75 0.75 0.71 0.65 0.64 0.61 0.53 0.50 0.42 0.39 0.37 0.38 0.37 0.35 0.39 0.40 0.40 0.45 0.58 0.64 0.60 0.77 0.82 0.86 1.05 0.86 0.64 0.67 0.63 0.56 0.50
0.43 0.40 0.52 0.78 0.74 0.70 0.75 0.87 0.86 0.87 0.93 0.85 0.80 0.82 0.81 0.77 0.78 0.79 0.75 0.65 0.59 0.53 0.51 0.48 0.44 0.39 0.40 0.44 0.44 0.50 0.61 0.54 0.61 0.86 0.79 0.93 0.94 0.73 0.54 0.54 0.57 0.60 0.60
0.57 0.45 0.47 0.67 0.66 0.65 0.74 0.83 0.88 0.88 0.86 0.78 0.80 0.85 0.85 0.84 0.86 0.88 0.88 0.78 0.73 0.66 0.64 0.62 0.59 0.51 0.45 0.47 0.48 0.48 0.54 0.48 0.45 0.65 0.73 0.88 0.90 0.76 0.52 0.47 0.53 0.55 0.65
0.90 0.75 0.63 0.58 0.57 0.63 0.76 0.84 1.01 1.06 0.91 0.79 0.78 0.78 0.76 0.77 0.80 0.84 0.85 0.80 0.74 0.73 0.72 0.67 0.63 0.59 0.55 0.51 0.49 0.48 0.50 0.49 0.52 0.58 0.57 0.77 0.81 0.70 0.51 0.47 0.47 0.54 0.65
0.87 0.86 0.81 0.80 0.74 0.74 0.77 0.94 1.22 1.35 1.18 0.93 0.81 0.77 0.78 0.73 0.72 0.78 0.74 0.75 0.76 0.81 0.83 0.80 0.73 0.63 0.60 0.58 0.56 0.52 0.49 0.41 0.41 0.45 0.47 0.55 0.69 0.60 0.50 0.41 0.38 0.43 0.55
0.82 0.83 0.81 0.85 0.88 1.00 1.01 1.07 1.32 1.48 1.45 1.08 0.88 0.86 0.77 0.60 0.73 0.77 0.63 0.75 0.81 0.91 0.95 0.94 0.84 0.75 0.73 0.67 0.62 0.59 0.44 0.31 0.39 0.43 0.48 0.52 0.65 0.66 0.52 0.39 0.32 0.34 0.36
0.70 0.71 0.72 0.74 0.74 0.80 0.86 1.18 1.39 1.31 1.38 1.10 1.05 0.97 0.88 0.89 0.92 0.79 0.68 0.79 0.92 1.01 0.97 0.94 0.94 0.88 0.74 0.57 0.50 0.48 0.30 0.26 0.33 0.35 0.35 0.48 0.69 0.72 0.56 0.42 0.33 0.29 0.25
0.56 0.50 0.47 0.52 0.53 0.58 0.67 0.85 1.13 1.39 1.44 1.40 1.34 1.25 1.17 1.06 0.88 0.77 0.75 0.74 0.84 0.91 0.86 0.91 0.88 0.75 0.66 0.58 0.55 0.44 0.33 0.30 0.32 0.30 0.39 0.51 0.68 0.74 0.62 0.47 0.33 0.26 0.24
0.57 0.57 0.48 0.42 0.46 0.46 0.50 0.64 0.88 1.11 1.26 1.28 1.19 1.10 1.27 1.20 0.96 0.85 0.92 0.92 0.89 0.92 1.00 1.02 0.94 0.84 0.73 0.64 0.61 0.51 0.45 0.42 0.34 0.33 0.46 0.42 0.56 0.65 0.68 0.57 0.40 0.29 0.25
0.56 0.62 0.56 0.43 0.37 0.42 0.45 0.51 0.60 0.84 1.00 1.00 1.13 1.09 1.13 1.11 0.97 0.88 0.88 1.01 0.96 0.96 1.05 1.12 0.98 0.89 0.85 0.78 0.72 0.63 0.57 0.53 0.46 0.34 0.37 0.38 0.45 0.57 0.72 0.74 0.60 0.38 0.29
0.50 0.53 0.54 0.49 0.47 0.46 0.43 0.43 0.48 0.54 0.71 0.74 0.75 0.74 0.94 1.04 1.02 1.03 0.91 0.99 1.12 1.14 1.10 1.07 1.03 0.91 0.85 0.84 0.79 0.73 0.64 0.50 0.44 0.38 0.34 0.35 0.36 0.39 0.57 0.77 0.72 0.54 0.42
0.44 0.44 0.47 0.54 0.58 0.57 0.57 0.57 0.54 0.55 0.58 0.65 0.72 0.73 0.86 0.96 1.03 1.04 0.91 0.95 1.07 1.24 1.19 1.11 1.02 0.97 0.80 0.72 0.76 0.77 0.73 0.57 0.45 0.44 0.38 0.34 0.32 0.35 0.49 0.75 0.84 0.70 0.59
0.34 0.33 0.38 0.45 0.52 0.58 0.62 0.66 0.62 0.66 0.67 0.65 0.70 0.68 0.73 0.88 1.04 1.12 1.03 0.97 1.11 1.28 1.41 1.43 1.24 1.11 0.94 0.81 0.81 0.78 0.72 0.68 0.57 0.46 0.40 0.38 0.36 0.34 0.40 0.55 0.77 0.92 0.80
0.27 0.26 0.29 0.34 0.41 0.48 0.57 0.65 0.67 0.69 0.83 0.91 0.79 0.65 0.72 0.85 0.96 1.16 1.24 1.18 1.21 1.35 1.39 1.40 1.36 1.16 1.06 0.97 0.85 0.78 0.68 0.64 0.62 0.45 0.40 0.40 0.44 0.38 0.37 0.36 0.42 0.53 0.62
0.24 0.23 0.25 0.31 0.33 0.36 0.47 0.64 0.73 0.70 0.80 1.01 1.05 1.01 1.05 1.12 1.18 1.33 1.41 1.39 1.39 1.43 1.38 1.48 1.60 1.34 1.12 1.12 1.03 0.86 0.71 0.60 0.58 0.48 0.42 0.39 0.41 0.39 0.36 0.32 0.30 0.19 0.28
0.17 0.19 0.23 0.29 0.32 0.34 0.42 0.53 0.62 0.72 0.90 1.11 1.17 1.22 1.35 1.37 1.40 1.54 1.63 1.65 1.57 1.46 1.46 1.61 1.91 1.77 1.40 1.23 1.23 1.06 0.81 0.63 0.62 0.50 0.44 0.44 0.41 0.41 0.42 0.42 0.33 0.29 0.20
0.10 0.12 0.17 0.26 0.35 0.41 0.47 0.62 0.77 0.99 1.11 1.25 1.40 1.39 1.41 1.46 1.49 1.57 1.78 1.88 1.80 1.75 1.80 1.79 1.95 2.05 1.79 1.55 1.46 1.55 1.29 0.99 0.63 0.45 0.44 0.42 0.42 0.47 0.44 0.47 0.41 0.34 0.31
0.08 0.10 0.17 0.31 0.50 0.70 0.82 1.05 1.33 1.58 1.66 1.58 1.57 1.61 1.59 1.63 1.70 1.66 1.77 1.97 1.93 1.86 1.85 1.99 2.19 2.38 2.27 2.05 1.83 1.84 1.50 1.26 1.14 0.65 0.44 0.43 0.45 0.48 0.49 0.50 0.48 0.42 0.41
0.12 0.20 0.36 0.61 0.91 1.16 1.32 1.51 1.72 1.83 1.87 1.80 1.81 1.79 1.77 1.69 1.62 1.61 1.72 1.93 2.06 2.12 2.14 2.19 2.17 2.39 2.52 2.31 2.26 1.95 1.61 1.42 1.45 1.21 0.76 0.53 0.53 0.51 0.50 0.49 0.44 0.49 0.50
0.39 0.57 0.86 1.12 1.37 1.52 1.58 1.68 1.88 2.03 2.19 2.20 2.08 1.93 1.82 1.78 1.70 1.61 1.66 1.73 1.78 1.85 1.95 2.07 2.12 2.28 2.36 2.44 2.42 2.25 2.00 1.75 1.33 1.27 1.25 0.96 0.72 0.50 0.49 0.53 0.53 0.54 0.55
0.82 1.00 1.20 1.35 1.50 1.51 1.52 1.58 1.71 1.90 2.06 2.08 2.09 2.05 1.92 1.78 1.67 1.58 1.53 1.64 1.66 1.66 1.77 1.88 1.95 2.14 2.26 2.36 2.40 2.26 2.07 1.93 1.68 1.43 1.28 1.20 1.07 0.75 0.56 0.54 0.55 0.58 0.64